Time,TemperatureF,DewpointF,PressureIn,WindDirection,WindDirectionDegrees,WindSpeedMPH,WindSpeedGustMPH,Humidity,HourlyPrecipIn,Conditions,Clouds,dailyrainin,SoftwareType,DateUTC
2013-03-06 00:00:00,27.7,25.2,29.99,NNW,328,9.0,9.0,90,0.00,,,0.00,Wunderground v.1.15,2013-03-06 06:00:00,
2013-03-06 00:05:00,27.7,25.2,29.99,WNW,290,8.0,10.0,90,0.00,,,0.00,Wunderground v.1.15,2013-03-06 06:05:00,
2013-03-06 00:10:00,27.7,25.2,29.99,WNW,285,8.0,8.0,90,0.00,,,0.00,Wunderground v.1.15,2013-03-06 06:10:00,
2013-03-06 00:15:00,27.7,25.2,30.00,NNW,330,8.0,8.0,90,0.00,,,0.00,Wunderground v.1.15,2013-03-06 06:15:00,
2013-03-06 00:20:00,27.7,25.2,30.00,NW,319,8.0,8.0,90,0.00,,,0.00,Wunderground v.1.15,2013-03-06 06:20:00,
2013-03-06 00:25:00,27.7,25.2,30.00,NNW,337,9.0,9.0,90,0.00,,,0.00,Wunderground v.1.15,2013-03-06 06:25:00,
2013-03-06 00:30:00,27.8,25.0,30.00,WNW,285,9.0,10.0,89,0.00,,,0.00,Wunderground v.1.15,2013-03-06 06:30:00,
2013-03-06 00:35:00,27.8,25.0,30.00,WNW,301,10.0,11.0,89,0.00,,,0.00,Wunderground v.1.15,2013-03-06 06:35:00,
2013-03-06 00:40:00,27.8,25.0,30.00,NW,315,9.0,12.0,89,0.00,,,0.00,Wunderground v.1.15,2013-03-06 06:40:00,
2013-03-06 00:45:00,27.9,25.1,30.01,WNW,297,8.0,12.0,89,0.00,,,0.00,Wunderground v.1.15,2013-03-06 06:45:00,
2013-03-06 00:50:00,27.9,25.1,30.01,WNW,297,9.0,9.0,89,0.00,,,0.00,Wunderground v.1.15,2013-03-06 06:50:00,
2013-03-06 00:55:00,28.0,25.2,30.01,NW,326,8.0,9.0,89,0.00,,,0.00,Wunderground v.1.15,2013-03-06 06:55:00,
2013-03-06 01:00:00,28.1,25.3,30.01,NNE,30,7.0,7.0,89,0.00,,,0.00,Wunderground v.1.15,2013-03-06 07:00:00,
2013-03-06 01:10:00,28.2,25.4,30.02,NNE,25,8.0,8.0,89,0.00,,,0.00,Wunderground v.1.15,2013-03-06 07:10:00,
2013-03-06 01:15:00,28.3,25.5,30.02,NW,315,7.0,8.0,89,0.00,,,0.00,Wunderground v.1.15,2013-03-06 07:15:00,
2013-03-06 01:20:00,28.3,25.2,30.02,NNE,20,7.0,7.0,88,0.00,,,0.00,Wunderground v.1.15,2013-03-06 07:20:00,
2013-03-06 01:25:00,28.4,25.3,30.02,WNW,296,7.0,11.0,88,0.00,,,0.00,Wunderground v.1.15,2013-03-06 07:25:00,
2013-03-06 01:30:00,28.5,25.4,30.02,NW,323,7.0,7.0,88,0.00,,,0.00,Wunderground v.1.15,2013-03-06 07:30:00,
2013-03-06 01:35:00,28.5,25.4,30.02,WNW,289,8.0,8.0,88,0.00,,,0.00,Wunderground v.1.15,2013-03-06 07:35:00,
2013-03-06 01:40:00,28.5,25.4,30.03,NNW,340,8.0,8.0,88,0.00,,,0.00,Wunderground v.1.15,2013-03-06 07:40:00,
2013-03-06 01:45:00,28.5,25.4,30.03,NNE,27,9.0,11.0,88,0.00,,,0.00,Wunderground v.1.15,2013-03-06 07:45:00,
2013-03-06 01:50:00,28.5,25.4,30.03,WNW,294,9.0,9.0,88,0.00,,,0.00,Wunderground v.1.15,2013-03-06 07:50:00,
2013-03-06 01:55:00,28.5,25.4,30.03,WNW,295,8.0,9.0,88,0.00,,,0.00,Wunderground v.1.15,2013-03-06 07:55:00,
2013-03-06 02:00:00,28.5,25.4,30.03,NW,323,8.0,8.0,88,0.00,,,0.00,Wunderground v.1.15,2013-03-06 08:00:00,
2013-03-06 02:05:00,28.5,25.4,30.03,NW,316,8.0,8.0,88,0.00,,,0.00,Wunderground v.1.15,2013-03-06 08:05:00,
2013-03-06 02:10:00,28.5,25.4,30.04,NE,35,8.0,8.0,88,0.00,,,0.00,Wunderground v.1.15,2013-03-06 08:10:00,
2013-03-06 02:15:00,28.5,25.4,30.04,WNW,302,8.0,12.0,88,0.00,,,0.00,Wunderground v.1.15,2013-03-06 08:15:00,
2013-03-06 02:20:00,28.5,25.4,30.03,NW,324,8.0,8.0,88,0.00,,,0.00,Wunderground v.1.15,2013-03-06 08:20:00,
2013-03-06 02:25:00,28.5,25.4,30.03,North,355,8.0,8.0,88,0.00,,,0.00,Wunderground v.1.15,2013-03-06 08:25:00,
2013-03-06 02:30:00,28.4,25.3,30.04,North,1,7.0,9.0,88,0.00,,,0.00,Wunderground v.1.15,2013-03-06 08:30:00,
2013-03-06 02:35:00,28.4,25.3,30.04,NW,320,6.0,10.0,88,0.00,,,0.00,Wunderground v.1.15,2013-03-06 08:35:00,
2013-03-06 02:40:00,28.4,25.0,30.04,North,1,7.0,7.0,87,0.00,,,0.00,Wunderground v.1.15,2013-03-06 08:40:00,
2013-03-06 02:45:00,28.3,24.9,30.04,NNW,336,7.0,11.0,87,0.00,,,0.00,Wunderground v.1.15,2013-03-06 08:45:00,
2013-03-06 02:50:00,28.3,24.9,30.04,WNW,284,7.0,7.0,87,0.00,,,0.00,Wunderground v.1.15,2013-03-06 08:50:00,
2013-03-06 02:55:00,28.2,24.8,30.04,WNW,288,7.0,9.0,87,0.00,,,0.00,Wunderground v.1.15,2013-03-06 08:55:00,
2013-03-06 03:00:00,28.1,24.7,30.04,NW,319,7.0,7.0,87,0.00,,,0.00,Wunderground v.1.15,2013-03-06 09:00:00,
2013-03-06 03:05:00,28.0,24.6,30.05,North,356,7.0,9.0,87,0.00,,,0.00,Wunderground v.1.15,2013-03-06 09:05:00,
2013-03-06 03:10:00,27.9,24.5,30.05,NW,316,8.0,8.0,87,0.00,,,0.00,Wunderground v.1.15,2013-03-06 09:10:00,
2013-03-06 03:15:00,27.7,24.3,30.06,NNW,342,8.0,8.0,87,0.00,,,0.00,Wunderground v.1.15,2013-03-06 09:15:00,
2013-03-06 03:20:00,27.7,24.3,30.06,NW,318,8.0,8.0,87,0.00,,,0.00,Wunderground v.1.15,2013-03-06 09:20:00,
2013-03-06 03:30:00,27.5,24.1,30.06,NW,316,7.0,7.0,87,0.00,,,0.00,Wunderground v.1.15,2013-03-06 09:30:00,
2013-03-06 03:35:00,27.3,23.9,30.06,NE,41,7.0,7.0,87,0.00,,,0.00,Wunderground v.1.15,2013-03-06 09:35:00,
2013-03-06 03:40:00,27.2,23.8,30.07,NW,305,8.0,8.0,87,0.00,,,0.00,Wunderground v.1.15,2013-03-06 09:40:00,
2013-03-06 03:45:00,27.1,23.7,30.07,NNW,328,8.0,8.0,87,0.00,,,0.00,Wunderground v.1.15,2013-03-06 09:45:00,
2013-03-06 03:50:00,27.0,23.6,30.08,NW,315,8.0,8.0,87,0.00,,,0.00,Wunderground v.1.15,2013-03-06 09:50:00,
2013-03-06 03:55:00,26.9,23.5,30.08,NW,314,7.0,8.0,87,0.00,,,0.00,Wunderground v.1.15,2013-03-06 09:55:00,
2013-03-06 04:00:00,26.7,23.4,30.08,NW,319,6.0,6.0,87,0.00,,,0.00,Wunderground v.1.15,2013-03-06 10:00:00,
2013-03-06 04:10:00,26.5,23.2,30.08,WNW,298,7.0,11.0,87,0.00,,,0.00,Wunderground v.1.15,2013-03-06 10:10:00,
2013-03-06 04:15:00,26.4,23.1,30.08,WNW,293,6.0,11.0,87,0.00,,,0.00,Wunderground v.1.15,2013-03-06 10:15:00,
2013-03-06 04:25:00,26.5,23.2,30.09,NW,316,7.0,10.0,87,0.00,,,0.00,Wunderground v.1.15,2013-03-06 10:25:00,
2013-03-06 04:30:00,26.6,23.3,30.09,NW,304,8.0,11.0,87,0.00,,,0.00,Wunderground v.1.15,2013-03-06 10:30:00,
2013-03-06 04:35:00,26.5,23.2,30.09,NNE,13,8.0,11.0,87,0.00,,,0.00,Wunderground v.1.15,2013-03-06 10:35:00,
2013-03-06 04:40:00,26.4,23.1,30.10,WNW,290,7.0,7.0,87,0.00,,,0.00,Wunderground v.1.15,2013-03-06 10:40:00,
2013-03-06 04:45:00,26.3,23.0,30.10,NW,314,7.0,7.0,87,0.00,,,0.00,Wunderground v.1.15,2013-03-06 10:45:00,
2013-03-06 04:55:00,25.9,22.6,30.11,NW,309,7.0,9.0,87,0.00,,,0.00,Wunderground v.1.15,2013-03-06 10:55:00,
2013-03-06 05:00:00,25.7,22.4,30.11,NW,307,6.0,8.0,87,0.00,,,0.00,Wunderground v.1.15,2013-03-06 11:00:00,
2013-03-06 05:05:00,25.5,22.4,30.11,NNW,333,6.0,8.0,88,0.00,,,0.00,Wunderground v.1.15,2013-03-06 11:05:00,
2013-03-06 05:10:00,25.3,22.2,30.11,NW,312,6.0,6.0,88,0.00,,,0.00,Wunderground v.1.15,2013-03-06 11:10:00,
2013-03-06 05:15:00,25.1,22.0,30.12,NNW,335,6.0,6.0,88,0.00,,,0.00,Wunderground v.1.15,2013-03-06 11:15:00,
2013-03-06 05:20:00,25.0,21.9,30.12,NNW,342,7.0,7.0,88,0.00,,,0.00,Wunderground v.1.15,2013-03-06 11:20:00,
2013-03-06 05:25:00,24.8,22.0,30.12,NNW,342,7.0,7.0,89,0.00,,,0.00,Wunderground v.1.15,2013-03-06 11:25:00,
2013-03-06 05:30:00,24.6,21.6,30.13,NW,323,7.0,8.0,88,0.00,,,0.00,Wunderground v.1.15,2013-03-06 11:30:00,
2013-03-06 05:35:00,24.5,21.5,30.13,NW,313,8.0,8.0,88,0.00,,,0.00,Wunderground v.1.15,2013-03-06 11:35:00,
2013-03-06 05:45:00,24.2,21.4,30.13,NW,313,8.0,9.0,89,0.00,,,0.00,Wunderground v.1.15,2013-03-06 11:45:00,
2013-03-06 05:50:00,24.1,21.3,30.14,NW,318,7.0,7.0,89,0.00,,,0.00,Wunderground v.1.15,2013-03-06 11:50:00,
2013-03-06 05:55:00,24.0,21.2,30.14,NW,316,7.0,7.0,89,0.00,,,0.00,Wunderground v.1.15,2013-03-06 11:55:00,
2013-03-06 06:00:00,23.9,21.1,30.14,NNW,328,7.0,7.0,89,0.00,,,0.00,Wunderground v.1.15,2013-03-06 12:00:00,
2013-03-06 06:05:00,23.8,21.0,30.14,NNW,342,7.0,7.0,89,0.00,,,0.00,Wunderground v.1.15,2013-03-06 12:05:00,
2013-03-06 06:10:00,23.8,21.0,30.14,NW,320,7.0,8.0,89,0.00,,,0.00,Wunderground v.1.15,2013-03-06 12:10:00,
2013-03-06 06:15:00,23.8,21.0,30.14,NNW,334,8.0,10.0,89,0.00,,,0.00,Wunderground v.1.15,2013-03-06 12:15:00,
2013-03-06 06:20:00,23.8,21.0,30.15,NW,311,8.0,8.0,89,0.00,,,0.00,Wunderground v.1.15,2013-03-06 12:20:00,
2013-03-06 06:25:00,23.8,21.0,30.15,WNW,295,9.0,9.0,89,0.00,,,0.00,Wunderground v.1.15,2013-03-06 12:25:00,
2013-03-06 06:30:00,23.8,20.8,30.14,WNW,298,9.0,9.0,88,0.00,,,0.00,Wunderground v.1.15,2013-03-06 12:30:00,
2013-03-06 06:35:00,23.6,20.6,30.15,NNW,333,8.0,9.0,88,0.00,,,0.00,Wunderground v.1.15,2013-03-06 12:35:00,
2013-03-06 06:40:00,23.6,20.6,30.15,NNW,328,8.0,8.0,88,0.00,,,0.00,Wunderground v.1.15,2013-03-06 12:40:00,
2013-03-06 07:00:00,23.4,20.6,30.16,NW,316,8.0,9.0,89,0.00,,,0.00,Wunderground v.1.15,2013-03-06 13:00:00,
2013-03-06 07:05:00,23.4,20.6,30.17,West,281,8.0,9.0,89,0.00,,,0.00,Wunderground v.1.15,2013-03-06 13:05:00,
2013-03-06 07:10:00,23.4,20.6,30.17,NW,325,8.0,11.0,89,0.00,,,0.00,Wunderground v.1.15,2013-03-06 13:10:00,
2013-03-06 07:15:00,23.4,20.6,30.17,NW,305,6.0,11.0,89,0.00,,,0.00,Wunderground v.1.15,2013-03-06 13:15:00,
2013-03-06 07:20:00,23.5,20.7,30.17,NNW,331,7.0,8.0,89,0.00,,,0.00,Wunderground v.1.15,2013-03-06 13:20:00,
2013-03-06 07:25:00,23.5,20.7,30.17,WNW,297,8.0,9.0,89,0.00,,,0.00,Wunderground v.1.15,2013-03-06 13:25:00,
2013-03-06 07:30:00,23.6,20.8,30.17,WNW,302,8.0,8.0,89,0.00,,,0.00,Wunderground v.1.15,2013-03-06 13:30:00,
2013-03-06 07:40:00,23.9,20.9,30.18,NW,315,6.0,7.0,88,0.00,,,0.00,Wunderground v.1.15,2013-03-06 13:40:00,
2013-03-06 07:45:00,24.0,21.0,30.18,WNW,298,6.0,11.0,88,0.00,,,0.00,Wunderground v.1.15,2013-03-06 13:45:00,
2013-03-06 07:50:00,24.1,21.1,30.18,NW,316,6.0,6.0,88,0.00,,,0.00,Wunderground v.1.15,2013-03-06 13:50:00,
2013-03-06 07:55:00,24.2,21.2,30.18,North,349,6.0,6.0,88,0.00,,,0.00,Wunderground v.1.15,2013-03-06 13:55:00,
2013-03-06 08:30:00,25.7,21.8,30.19,NNW,335,7.0,8.0,85,0.00,,,0.00,Wunderground v.1.15,2013-03-06 14:30:00,
2013-03-06 08:35:00,25.9,22.3,30.19,NNW,332,7.0,8.0,86,0.00,,,0.00,Wunderground v.1.15,2013-03-06 14:35:00,
2013-03-06 08:40:00,26.1,22.2,30.19,NNW,338,7.0,8.0,85,0.00,,,0.00,Wunderground v.1.15,2013-03-06 14:40:00,
2013-03-06 08:45:00,26.3,22.4,30.19,WNW,285,7.0,8.0,85,0.00,,,0.00,Wunderground v.1.15,2013-03-06 14:45:00,
2013-03-06 08:50:00,26.6,22.7,30.20,NW,311,7.0,8.0,85,0.00,,,0.00,Wunderground v.1.15,2013-03-06 14:50:00,
2013-03-06 08:55:00,26.9,22.7,30.20,North,357,7.0,8.0,84,0.00,,,0.00,Wunderground v.1.15,2013-03-06 14:55:00,
2013-03-06 09:00:00,26.9,22.7,30.20,NW,319,8.0,9.0,84,0.00,,,0.00,Wunderground v.1.15,2013-03-06 15:00:00,
2013-03-06 09:10:00,27.3,23.4,30.21,WNW,297,7.0,7.0,85,0.00,,,0.00,Wunderground v.1.15,2013-03-06 15:10:00,
2013-03-06 09:15:00,27.5,23.6,30.21,NNE,22,6.0,10.0,85,0.00,,,0.00,Wunderground v.1.15,2013-03-06 15:15:00,
2013-03-06 09:20:00,27.7,23.8,30.21,NNW,337,6.0,6.0,85,0.00,,,0.00,Wunderground v.1.15,2013-03-06 15:20:00,
2013-03-06 09:25:00,27.9,23.7,30.22,NW,304,6.0,9.0,84,0.00,,,0.00,Wunderground v.1.15,2013-03-06 15:25:00,
2013-03-06 09:30:00,27.8,23.3,30.22,NW,311,8.0,8.0,83,0.00,,,0.00,Wunderground v.1.15,2013-03-06 15:30:00,
2013-03-06 09:35:00,28.1,23.9,30.22,North,356,7.0,8.0,84,0.00,,,0.00,Wunderground v.1.15,2013-03-06 15:35:00,
2013-03-06 09:45:00,27.8,23.3,30.23,NNW,342,7.0,7.0,83,0.00,,,0.00,Wunderground v.1.15,2013-03-06 15:45:00,
2013-03-06 09:55:00,27.7,23.2,30.23,NW,316,7.0,10.0,83,0.00,,,0.00,Wunderground v.1.15,2013-03-06 15:55:00,
2013-03-06 10:00:00,27.6,23.1,30.23,North,1,8.0,8.0,83,0.00,,,0.00,Wunderground v.1.15,2013-03-06 16:00:00,
2013-03-06 10:05:00,27.7,23.2,30.22,NW,305,7.0,10.0,83,0.00,,,0.00,Wunderground v.1.15,2013-03-06 16:05:00,
2013-03-06 10:10:00,27.8,23.6,30.22,NNW,340,7.0,7.0,84,0.00,,,0.00,Wunderground v.1.15,2013-03-06 16:10:00,
2013-03-06 10:15:00,28.0,23.5,30.22,NW,306,7.0,8.0,83,0.00,,,0.00,Wunderground v.1.15,2013-03-06 16:15:00,
2013-03-06 10:20:00,28.5,24.0,30.23,NW,315,6.0,6.0,83,0.00,,,0.00,Wunderground v.1.15,2013-03-06 16:20:00,
2013-03-06 10:25:00,28.6,23.8,30.22,NW,305,5.0,11.0,82,0.00,,,0.00,Wunderground v.1.15,2013-03-06 16:25:00,
2013-03-06 10:30:00,28.8,24.0,30.23,WNW,292,6.0,6.0,82,0.00,,,0.00,Wunderground v.1.15,2013-03-06 16:30:00,
2013-03-06 10:35:00,28.9,23.8,30.23,NW,305,6.0,6.0,81,0.00,,,0.00,Wunderground v.1.15,2013-03-06 16:35:00,
2013-03-06 10:40:00,29.0,23.9,30.23,WNW,291,6.0,9.0,81,0.00,,,0.00,Wunderground v.1.15,2013-03-06 16:40:00,
2013-03-06 10:45:00,28.7,23.3,30.23,NNE,21,8.0,9.0,80,0.00,,,0.00,Wunderground v.1.15,2013-03-06 16:45:00,
2013-03-06 10:50:00,28.8,23.4,30.23,NNW,332,9.0,9.0,80,0.00,,,0.00,Wunderground v.1.15,2013-03-06 16:50:00,
2013-03-06 10:55:00,28.9,23.8,30.23,NW,319,7.0,9.0,81,0.00,,,0.00,Wunderground v.1.15,2013-03-06 16:55:00,
2013-03-06 11:00:00,28.9,23.8,30.23,NW,323,6.0,8.0,81,0.00,,,0.00,Wunderground v.1.15,2013-03-06 17:00:00,
2013-03-06 11:05:00,28.9,23.5,30.23,NNW,328,7.0,8.0,80,0.00,,,0.00,Wunderground v.1.15,2013-03-06 17:05:00,
2013-03-06 11:10:00,28.7,23.3,30.23,West,278,7.0,7.0,80,0.00,,,0.00,Wunderground v.1.15,2013-03-06 17:10:00,
2013-03-06 11:15:00,28.8,23.7,30.24,North,356,7.0,7.0,81,0.00,,,0.00,Wunderground v.1.15,2013-03-06 17:15:00,
2013-03-06 11:20:00,28.8,23.7,30.24,NW,323,6.0,7.0,81,0.00,,,0.00,Wunderground v.1.15,2013-03-06 17:20:00,
2013-03-06 11:25:00,28.7,23.6,30.24,North,1,7.0,7.0,81,0.00,,,0.00,Wunderground v.1.15,2013-03-06 17:25:00,
2013-03-06 11:30:00,28.9,23.8,30.24,NNW,346,6.0,6.0,81,0.00,,,0.00,Wunderground v.1.15,2013-03-06 17:30:00,
2013-03-06 11:35:00,29.0,24.2,30.23,North,360,5.0,6.0,82,0.00,,,0.00,Wunderground v.1.15,2013-03-06 17:35:00,
2013-03-06 11:40:00,29.1,24.0,30.23,NW,307,5.0,5.0,81,0.00,,,0.00,Wunderground v.1.15,2013-03-06 17:40:00,
2013-03-06 11:45:00,29.1,24.0,30.23,North,350,5.0,5.0,81,0.00,,,0.00,Wunderground v.1.15,2013-03-06 17:45:00,
2013-03-06 11:50:00,29.3,24.2,30.23,NNE,29,5.0,10.0,81,0.00,,,0.00,Wunderground v.1.15,2013-03-06 17:50:00,
2013-03-06 11:55:00,29.2,23.8,30.23,NNW,329,6.0,10.0,80,0.00,,,0.00,Wunderground v.1.15,2013-03-06 17:55:00,
2013-03-06 12:00:00,29.2,24.1,30.23,WNW,302,6.0,7.0,81,0.00,,,0.00,Wunderground v.1.15,2013-03-06 18:00:00,
2013-03-06 12:05:00,29.2,24.1,30.22,NW,307,6.0,7.0,81,0.00,,,0.00,Wunderground v.1.15,2013-03-06 18:05:00,
2013-03-06 12:10:00,29.1,23.7,30.22,WNW,291,6.0,7.0,80,0.00,,,0.00,Wunderground v.1.15,2013-03-06 18:10:00,
2013-03-06 12:20:00,29.4,24.0,30.22,NW,304,5.0,8.0,80,0.00,,,0.00,Wunderground v.1.15,2013-03-06 18:20:00,
2013-03-06 12:25:00,29.4,24.0,30.22,NW,316,6.0,8.0,80,0.00,,,0.00,Wunderground v.1.15,2013-03-06 18:25:00,
2013-03-06 12:30:00,29.3,23.9,30.22,NW,321,6.0,6.0,80,0.00,,,0.00,Wunderground v.1.15,2013-03-06 18:30:00,
2013-03-06 16:55:00,28.2,23.4,30.24,WSW,250,4.0,5.0,82,0.00,,,0.00,Wunderground v.1.15,2013-03-06 22:55:00,
2013-03-06 17:00:00,28.1,23.3,30.24,NW,316,3.0,3.0,82,0.00,,,0.00,Wunderground v.1.15,2013-03-06 23:00:00,
2013-03-06 17:05:00,28.0,23.2,30.24,WNW,299,3.0,3.0,82,0.00,,,0.00,Wunderground v.1.15,2013-03-06 23:05:00,
2013-03-06 17:10:00,27.9,23.1,30.24,WSW,255,3.0,4.0,82,0.00,,,0.00,Wunderground v.1.15,2013-03-06 23:10:00,
2013-03-06 17:15:00,27.7,22.9,30.24,WNW,290,4.0,4.0,82,0.00,,,0.00,Wunderground v.1.15,2013-03-06 23:15:00,
2013-03-06 17:20:00,27.7,22.9,30.24,WNW,297,4.0,4.0,82,0.00,,,0.00,Wunderground v.1.15,2013-03-06 23:20:00,
2013-03-06 17:25:00,27.6,22.8,30.24,WNW,295,4.0,6.0,82,0.00,,,0.00,Wunderground v.1.15,2013-03-06 23:25:00,
2013-03-06 17:30:00,27.6,23.1,30.24,NW,312,3.0,3.0,83,0.00,,,0.00,Wunderground v.1.15,2013-03-06 23:30:00,
2013-03-06 17:35:00,27.6,23.1,30.24,WNW,286,3.0,6.0,83,0.00,,,0.00,Wunderground v.1.15,2013-03-06 23:35:00,
2013-03-06 17:40:00,27.6,23.1,30.25,WNW,299,3.0,3.0,83,0.00,,,0.00,Wunderground v.1.15,2013-03-06 23:40:00,
2013-03-06 17:45:00,27.5,23.0,30.25,WNW,290,3.0,3.0,83,0.00,,,0.00,Wunderground v.1.15,2013-03-06 23:45:00,
2013-03-06 17:50:00,27.4,22.9,30.25,NW,316,4.0,6.0,83,0.00,,,0.00,Wunderground v.1.15,2013-03-06 23:50:00,
2013-03-06 17:55:00,27.3,23.1,30.25,NW,308,3.0,6.0,84,0.00,,,0.00,Wunderground v.1.15,2013-03-06 23:55:00,
2013-03-06 18:00:00,27.2,22.7,30.25,NW,325,4.0,4.0,83,0.00,,,0.00,Wunderground v.1.15,2013-03-07 00:00:00,
2013-03-06 18:05:00,27.1,22.6,30.25,NW,309,4.0,4.0,83,0.00,,,0.00,Wunderground v.1.15,2013-03-07 00:05:00,
2013-03-06 18:10:00,27.1,22.6,30.25,NW,314,4.0,4.0,83,0.00,,,0.00,Wunderground v.1.15,2013-03-07 00:10:00,
2013-03-06 18:20:00,27.0,22.8,30.25,NNW,345,3.0,3.0,84,0.00,,,0.00,Wunderground v.1.15,2013-03-07 00:20:00,
2013-03-06 18:30:00,26.9,22.4,30.25,NW,319,4.0,4.0,83,0.00,,,0.00,Wunderground v.1.15,2013-03-07 00:30:00,
2013-03-06 18:35:00,26.8,22.6,30.25,NW,309,4.0,4.0,84,0.00,,,0.00,Wunderground v.1.15,2013-03-07 00:35:00,
2013-03-06 18:40:00,26.8,22.6,30.25,NW,322,4.0,4.0,84,0.00,,,0.00,Wunderground v.1.15,2013-03-07 00:40:00,
2013-03-06 18:45:00,26.7,22.5,30.25,NNW,334,5.0,5.0,84,0.00,,,0.00,Wunderground v.1.15,2013-03-07 00:45:00,
2013-03-06 18:50:00,26.6,22.4,30.25,NW,312,5.0,5.0,84,0.00,,,0.00,Wunderground v.1.15,2013-03-07 00:50:00,
2013-03-06 18:55:00,26.6,22.4,30.25,NW,306,4.0,5.0,84,0.00,,,0.00,Wunderground v.1.15,2013-03-07 00:55:00,
2013-03-06 19:00:00,26.5,22.3,30.25,NW,311,3.0,7.0,84,0.00,,,0.00,Wunderground v.1.15,2013-03-07 01:00:00,
2013-03-06 19:05:00,26.5,22.3,30.25,WNW,283,3.0,7.0,84,0.00,,,0.00,Wunderground v.1.15,2013-03-07 01:05:00,
2013-03-06 19:10:00,26.5,22.3,30.25,West,274,3.0,5.0,84,0.00,,,0.00,Wunderground v.1.15,2013-03-07 01:10:00,
2013-03-06 19:15:00,26.4,21.9,30.25,WNW,293,3.0,5.0,83,0.00,,,0.00,Wunderground v.1.15,2013-03-07 01:15:00,
2013-03-06 19:20:00,26.4,22.2,30.25,WNW,302,3.0,3.0,84,0.00,,,0.00,Wunderground v.1.15,2013-03-07 01:20:00,
2013-03-06 19:30:00,26.3,22.1,30.25,WNW,291,3.0,3.0,84,0.00,,,0.00,Wunderground v.1.15,2013-03-07 01:30:00,
2013-03-06 19:35:00,26.3,22.1,30.25,NW,319,3.0,3.0,84,0.00,,,0.00,Wunderground v.1.15,2013-03-07 01:35:00,
2013-03-06 19:40:00,26.2,22.0,30.25,NW,307,3.0,5.0,84,0.00,,,0.00,Wunderground v.1.15,2013-03-07 01:40:00,
2013-03-06 19:45:00,26.2,22.0,30.25,NW,305,3.0,5.0,84,0.00,,,0.00,Wunderground v.1.15,2013-03-07 01:45:00,
2013-03-06 19:50:00,26.2,22.3,30.24,WNW,298,3.0,3.0,85,0.00,,,0.00,Wunderground v.1.15,2013-03-07 01:50:00,
2013-03-06 19:55:00,26.2,22.3,30.24,NW,305,2.0,3.0,85,0.00,,,0.00,Wunderground v.1.15,2013-03-07 01:55:00,
2013-03-06 20:00:00,26.1,22.2,30.25,NW,323,2.0,2.0,85,0.00,,,0.00,Wunderground v.1.15,2013-03-07 02:00:00,
2013-03-06 20:10:00,26.1,22.2,30.24,WNW,298,2.0,2.0,85,0.00,,,0.00,Wunderground v.1.15,2013-03-07 02:10:00,
2013-03-06 20:15:00,26.1,22.2,30.24,WNW,295,3.0,5.0,85,0.00,,,0.00,Wunderground v.1.15,2013-03-07 02:15:00,
2013-03-06 20:20:00,26.0,22.4,30.24,WNW,284,2.0,2.0,86,0.00,,,0.00,Wunderground v.1.15,2013-03-07 02:20:00,
2013-03-06 20:25:00,26.1,22.5,30.24,WNW,296,2.0,5.0,86,0.00,,,0.00,Wunderground v.1.15,2013-03-07 02:25:00,
2013-03-06 20:30:00,26.0,22.4,30.24,NW,305,2.0,2.0,86,0.00,,,0.00,Wunderground v.1.15,2013-03-07 02:30:00,
2013-03-06 20:40:00,26.0,22.4,30.24,NW,312,2.0,2.0,86,0.00,,,0.00,Wunderground v.1.15,2013-03-07 02:40:00,
2013-03-06 20:50:00,25.9,22.3,30.25,WNW,295,2.0,2.0,86,0.00,,,0.00,Wunderground v.1.15,2013-03-07 02:50:00,
2013-03-06 20:55:00,25.9,22.3,30.25,WSW,250,2.0,2.0,86,0.00,,,0.00,Wunderground v.1.15,2013-03-07 02:55:00,
2013-03-06 21:00:00,26.0,22.4,30.25,WNW,291,2.0,2.0,86,0.00,,,0.00,Wunderground v.1.15,2013-03-07 03:00:00,
2013-03-06 21:05:00,25.9,22.3,30.25,West,281,2.0,2.0,86,0.00,,,0.00,Wunderground v.1.15,2013-03-07 03:05:00,
2013-03-06 21:10:00,25.9,22.3,30.24,WNW,288,2.0,2.0,86,0.00,,,0.00,Wunderground v.1.15,2013-03-07 03:10:00,
2013-03-06 21:15:00,25.9,22.3,30.24,WSW,238,2.0,4.0,86,0.00,,,0.00,Wunderground v.1.15,2013-03-07 03:15:00,
2013-03-06 21:20:00,25.9,22.3,30.24,WNW,290,2.0,2.0,86,0.00,,,0.00,Wunderground v.1.15,2013-03-07 03:20:00,
2013-03-06 21:25:00,25.9,22.3,30.24,WNW,302,3.0,3.0,86,0.00,,,0.00,Wunderground v.1.15,2013-03-07 03:25:00,
2013-03-06 21:30:00,25.8,22.2,30.24,WNW,289,3.0,4.0,86,0.00,,,0.00,Wunderground v.1.15,2013-03-07 03:30:00,
2013-03-06 21:35:00,25.8,22.2,30.24,WNW,302,2.0,4.0,86,0.00,,,0.00,Wunderground v.1.15,2013-03-07 03:35:00,
2013-03-06 21:40:00,25.8,22.5,30.24,NW,325,2.0,2.0,87,0.00,,,0.00,Wunderground v.1.15,2013-03-07 03:40:00,
2013-03-06 21:45:00,25.8,22.2,30.24,NW,304,2.0,2.0,86,0.00,,,0.00,Wunderground v.1.15,2013-03-07 03:45:00,
2013-03-06 21:50:00,25.8,22.2,30.24,West,278,3.0,3.0,86,0.00,,,0.00,Wunderground v.1.15,2013-03-07 03:50:00,
2013-03-06 21:55:00,25.8,22.2,30.24,NNE,16,2.0,3.0,86,0.00,,,0.00,Wunderground v.1.15,2013-03-07 03:55:00,
2013-03-06 22:00:00,25.8,22.5,30.24,NNW,330,2.0,2.0,87,0.00,,,0.00,Wunderground v.1.15,2013-03-07 04:00:00,
2013-03-06 22:05:00,25.8,22.5,30.24,WNW,298,2.0,2.0,87,0.00,,,0.00,Wunderground v.1.15,2013-03-07 04:05:00,
2013-03-06 22:10:00,25.9,22.6,30.24,WNW,290,2.0,3.0,87,0.00,,,0.00,Wunderground v.1.15,2013-03-07 04:10:00,
2013-03-06 22:20:00,25.9,22.6,30.24,West,279,2.0,2.0,87,0.00,,,0.00,Wunderground v.1.15,2013-03-07 04:20:00,
2013-03-06 22:25:00,25.8,22.5,30.24,West,278,2.0,2.0,87,0.00,,,0.00,Wunderground v.1.15,2013-03-07 04:25:00,
2013-03-06 22:30:00,25.8,22.5,30.24,West,265,1.0,2.0,87,0.00,,,0.00,Wunderground v.1.15,2013-03-07 04:30:00,
2013-03-06 22:35:00,25.8,22.5,30.24,WSW,252,1.0,2.0,87,0.00,,,0.00,Wunderground v.1.15,2013-03-07 04:35:00,
2013-03-06 22:45:00,25.7,22.4,30.24,West,271,1.0,2.0,87,0.00,,,0.00,Wunderground v.1.15,2013-03-07 04:45:00,
2013-03-06 22:50:00,25.7,22.4,30.24,WSW,255,1.0,1.0,87,0.00,,,0.00,Wunderground v.1.15,2013-03-07 04:50:00,
2013-03-06 23:00:00,25.6,22.3,30.25,WSW,240,1.0,2.0,87,0.00,,,0.00,Wunderground v.1.15,2013-03-07 05:00:00,
2013-03-06 23:05:00,25.6,22.3,30.25,WNW,299,1.0,2.0,87,0.00,,,0.00,Wunderground v.1.15,2013-03-07 05:05:00,
2013-03-06 23:15:00,25.5,22.2,30.25,West,262,2.0,2.0,87,0.00,,,0.00,Wunderground v.1.15,2013-03-07 05:15:00,
2013-03-06 23:20:00,25.5,22.2,30.25,West,281,2.0,2.0,87,0.00,,,0.00,Wunderground v.1.15,2013-03-07 05:20:00,
2013-03-06 23:25:00,25.5,22.2,30.25,WNW,302,1.0,2.0,87,0.00,,,0.00,Wunderground v.1.15,2013-03-07 05:25:00,
2013-03-06 23:30:00,25.4,22.1,30.25,West,261,1.0,1.0,87,0.00,,,0.00,Wunderground v.1.15,2013-03-07 05:30:00,
2013-03-06 23:35:00,25.4,22.1,30.25,WNW,302,1.0,2.0,87,0.00,,,0.00,Wunderground v.1.15,2013-03-07 05:35:00,
2013-03-06 23:45:00,25.4,22.3,30.25,WNW,289,1.0,2.0,88,0.00,,,0.00,Wunderground v.1.15,2013-03-07 05:45:00,
2013-03-06 23:50:00,25.4,22.3,30.25,WNW,299,1.0,2.0,88,0.00,,,0.00,Wunderground v.1.15,2013-03-07 05:50:00,
2013-03-06 23:55:00,25.3,22.0,30.25,West,259,1.0,2.0,87,0.00,,,0.00,Wunderground v.1.15,2013-03-07 05:55:00,